This demonstration page uses our WeatherBlox Daily Observations layout. Learn more.

Left ArrowRight Arrow

39.29038, -76.61219

Hourly Observations for May 12, 2020

Temp ( °F °C ) Dew Point ( °F °C ) Humidity (%) Winds ( mph kmh ) Pressure ( in mb ) Visibility ( mi km ) Precip ( " mm )
12:54 am 00:54 undefined 47 8.3 30 -1.1 52 52 undefined N/A 30.09 1019 N/A N/A
1:54 am 01:54 undefined 46 7.8 31 -0.6 56 56 undefined N/A 30.09 1019 N/A N/A
2:54 am 02:54 undefined 45 7.2 31 -0.6 58 58 undefined N/A 30.09 1019 N/A N/A
3:54 am 03:54 undefined 44 6.7 31 -0.6 60 60 undefined N/A 30.09 1019 N/A N/A
4:54 am 04:54 undefined 43 6.1 31 -0.6 63 63 undefined N/A 30.11 1020 N/A N/A
5:54 am 05:54 undefined 43 6.1 31 -0.6 63 63 undefined N/A 30.13 1020 N/A N/A
6:54 am 06:54 undefined 45 7.2 32 undefined 61 61 undefined N/A 30.15 1021 N/A N/A
7:54 am 07:54 undefined 47 8.3 32 undefined 56 56 undefined N/A 30.17 1022 N/A N/A
8:54 am 08:54 undefined 51 10.6 32 undefined 48 48 undefined N/A 30.16 1021 N/A N/A
9:54 am 09:54 undefined 53 11.7 31 -0.6 43 43 undefined N/A 30.16 1021 N/A N/A
10:54 am 10:54 undefined 53 11.7 30 -1.1 41 41 undefined N/A 30.16 1022 N/A N/A
11:54 am 11:54 undefined 53 11.7 30 -1.1 41 41 undefined N/A 30.17 1022 N/A N/A
12:54 pm 12:54 undefined 56 13.3 30 -1.1 37 37 undefined N/A 30.14 1021 N/A N/A
1:54 pm 13:54 undefined 58 14.4 30 -1.1 35 35 undefined N/A 30.13 1020 N/A N/A
2:54 pm 14:54 undefined 59 15 28 -2.2 31 31 undefined N/A 30.12 1020 N/A N/A
3:54 pm 15:54 undefined 59 15 26 -3.3 28 28 undefined N/A 30.10 1019 N/A N/A
4:54 pm 16:54 undefined 60 15.6 26 -3.3 27 27 undefined N/A 30.10 1019 N/A N/A
5:54 pm 17:54 undefined 60 15.6 24 -4.4 25 25 undefined N/A 30.10 1019 N/A N/A
6:54 pm 18:54 undefined 60 15.6 23 -5 24 24 undefined N/A 30.12 1020 N/A N/A
7:54 pm 19:54 undefined 59 15 22 -5.6 24 24 undefined N/A 30.15 1021 N/A N/A
8:54 pm 20:54 undefined 57 13.9 24 -4.4 28 28 undefined N/A 30.16 1022 N/A N/A
9:54 pm 21:54 undefined 55 12.8 24 -4.4 30 30 undefined N/A 30.19 1022 N/A N/A
10:54 pm 22:54 undefined 52 11.1 26 -3.3 37 37 undefined N/A 30.21 1023 N/A N/A
11:54 pm 23:54 undefined 51 10.6 27 -2.8 39 39 undefined N/A 30.22 1023 N/A N/A

Powered by AerisWeather